Content
SEND FEEDBACK

Daily
Averages
Monthly
Summary
United States of America

WRIGHTSBORO, NORTH CAROLINA


Home > North America > United States > North Carolina
Elevation: 30 feet     Latitude: 34 18N     Longitude: 077 54W

WEATHER
 
SELECT A DAY
Number of Records: 208,780;   Date Range: 1/1/95 - 7/26/14
 
SHARE

PRINT THIS DATA

[ ← Previous Day ]
WEATHER ALMANAC - JANUARY 10, 2013
[ Next Day → ]
[ °C ]   °F
Weather ElementAverageHighLow
Temperature55.6 °F66.9 °F (10:53 am)50 °F (11:53 pm)
Dewpoint46.9 °F52 °F (1:53 am)37 °F (8:53 pm)
Humidity75.1 %96 % (4:53 am)45 % (2:53 pm)
Barometer30.44 in30.49 in (8:53 am)30.42 in (4:07 am)
Wind Speed5.3 mph16.1 mph (1:53 pm)
Wind Gust25.3 mph (12:53 pm)
Weather ElementAverage
Visibility7.8 mi
Wind DirectionNNE (38.2 °)

Weather ElementTotal
Precipitation---
Heating Degree Days6.6 (Base 65)
Growing Degree Days8.5 (Base 50)
Averaged from 34 records on January 10, 2013
WEATHER CONDITIONS BREAKOUT
WIND DIRECTION BREAKOUT
WEATHER BY HOUR - JANUARY 10, 2013
[ °C ]   °F
Local TimeTemperatureDewpointHumidityBarometerVisibilityWind DirectionWind SpeedGust SpeedPrecipitationEventsConditions
1:53 AM54.0 °F52.0 °F93 %30.43 in10.0 miCalmClear
2:38 AM53.6 °F51.8 °F94 %30.43 in10.0 miCalmPartly Cloudy
2:53 AM54.0 °F52.0 °F93 %30.43 in10.0 miCalmMostly Cloudy
3:06 AM53.6 °F51.8 °F94 %30.43 in10.0 miCalmScattered Clouds
3:53 AM53.1 °F51.1 °F93 %30.43 in10.0 miCalmClear
4:07 AM53.6 °F51.8 °F94 %30.42 in9.0 miCalmPartly Cloudy
4:53 AM51.1 °F50.0 °F96 %30.42 in1.8 miCalmClear
5:02 AM51.8 °F48.2 °F88 %30.42 in1.2 miCalmPartly Cloudy
5:04 AM51.8 °F50.0 °F94 %30.42 in0.8 miNNE (30°)3.5 mphMist
5:20 AM51.8 °F50.0 °F94 %30.42 in1.2 miCalmScattered Clouds
5:23 AM51.8 °F50.0 °F94 %30.42 in2.5 miCalmScattered Clouds
5:30 AM51.8 °F48.2 °F88 %30.42 in7.0 miCalmScattered Clouds
5:53 AM52.0 °F50.0 °F93 %30.43 in5.0 miNNE (30°)4.6 mphClear
6:53 AM53.1 °F51.1 °F93 %30.44 in4.0 miCalmClear
7:28 AM53.6 °F51.8 °F94 %30.46 in1.5 miNNE (30°)4.6 mphClear
7:38 AM53.6 °F51.8 °F94 %30.47 in3.0 miNNE (20°)5.8 mphClear
7:53 AM53.1 °F51.1 °F93 %30.48 in7.0 miNE (40°)6.9 mphClear
8:53 AM57.9 °F52.0 °F81 %30.49 in10.0 miNE (40°)11.5 mphClear
9:53 AM62.6 °F50.0 °F63 %30.49 in10.0 miNE (50°)11.5 mphClear
10:53 AM66.9 °F51.1 °F57 %30.48 in10.0 miNE (50°)8.1 mphClear
11:53 AM64.9 °F48.9 °F56 %30.45 in10.0 miEast (80°)13.8 mph21.9 mphClear
12:53 PM64.0 °F44.1 °F48 %30.44 in10.0 miEast (80°)13.8 mph25.3 mphClear
1:53 PM64.0 °F44.1 °F48 %30.43 in10.0 miEast (90°)16.1 mph19.6 mphClear
2:53 PM64.9 °F43.0 °F45 %30.45 in10.0 miEast (100°)12.7 mphClear
3:53 PM63.0 °F44.1 °F50 %30.45 in10.0 miEast (80°)12.7 mph19.6 mphClear
4:53 PM60.1 °F41.0 °F49 %30.45 in10.0 miEast (80°)6.9 mphClear
5:53 PM55.9 °F39.9 °F55 %30.45 in10.0 miEast (80°)4.6 mphClear
6:53 PM54.0 °F41.0 °F62 %30.46 in10.0 miENE (60°)6.9 mphClear
7:53 PM54.0 °F39.0 °F57 %30.46 in10.0 miENE (60°)5.8 mphOvercast
8:53 PM53.1 °F37.0 °F55 %30.46 in10.0 miNE (50°)5.8 mphMostly Cloudy
9:40 PM53.6 °F37.4 °F54 %30.45 in10.0 miENE (60°)5.8 mphOvercast
9:53 PM53.1 °F37.9 °F57 %30.44 in10.0 miENE (70°)5.8 mphOvercast
10:53 PM52.0 °F39.9 °F63 %30.43 in10.0 miENE (70°)6.9 mphOvercast
11:53 PM50.0 °F41.0 °F71 %30.43 in10.0 miNE (50°)4.6 mphPartly Cloudy
Hourly data recorded from KILM, located miles away from Wrightsboro, North Carolina







STORIES FROM OUR PARTNERS